Theta_e
357 356 354 353 351 351 352 352 353 354 352 353 354 354 354 355 356 355 357 358 358 358 358 358 358 360 361 360 360 358 354 354 354 353 354 355 355 352 352 352 352 352 351 353 355 353 352 353 354 354 351 348 346 346 346 346 346 346 346 346 345 345 345 345 344 343 342 341 342 342 341 340 340 339 338 340 343 345 347 348 349 348 347 346 345
358 357 356 355 354 354 354 354 355 355 354 353 352 351 353 355 356 356 357 356 358 360 361 361 359 359 358 358 358 354 347 345 347 348 350 354 354 352 353 355 354 353 350 351 355 354 352 354 354 353 351 348 346 346 347 346 345 345 346 345 345 345 345 345 345 343 341 341 341 339 338 339 339 339 338 339 340 343 345 346 347 348 349 349 348
362 359 355 355 356 356 355 355 355 353 352 351 350 350 351 353 353 353 353 356 359 359 358 358 357 356 355 353 354 353 348 347 349 351 351 352 352 352 354 356 356 355 353 353 354 354 353 353 353 352 351 349 348 348 348 347 345 344 344 345 345 345 345 345 344 344 342 342 342 340 339 341 343 342 341 339 338 340 343 345 345 346 348 349 349
362 359 353 350 352 355 355 355 354 352 351 350 350 352 351 352 353 354 353 354 356 355 352 352 355 356 352 349 350 352 350 347 350 351 351 352 352 352 353 354 354 353 352 352 352 352 352 352 353 352 351 349 348 349 349 347 345 345 345 345 345 346 345 345 344 344 344 343 343 342 342 344 347 344 342 341 338 339 341 342 343 345 346 348 348
359 358 353 346 345 349 352 353 353 351 348 345 346 347 346 345 348 351 352 351 349 350 350 351 351 350 348 347 348 349 347 343 343 343 343 347 351 352 352 351 351 350 350 350 350 350 350 351 351 350 350 350 350 350 348 347 347 347 347 347 346 346 346 345 345 344 344 345 344 344 344 347 348 344 343 344 341 340 340 338 338 341 345 347 347
355 354 351 346 342 341 345 348 346 343 340 338 340 340 340 340 341 344 347 348 348 348 350 351 351 351 350 350 349 348 347 345 344 342 341 345 349 350 349 347 348 347 348 348 349 350 351 350 349 349 349 349 350 350 349 348 349 348 349 349 347 347 346 345 345 345 345 345 345 345 345 345 345 344 345 348 345 342 340 340 339 339 341 345 346
353 353 351 347 342 338 338 341 340 339 339 339 338 338 338 340 341 343 345 345 346 346 347 348 350 351 351 350 350 349 349 348 346 346 347 347 349 349 347 345 345 346 346 347 349 350 350 349 348 348 349 348 348 350 350 349 350 350 350 350 349 348 347 346 346 345 345 345 345 345 344 342 342 344 346 348 350 348 343 341 342 341 342 343 344
355 359 356 346 340 337 336 338 339 340 341 339 338 337 338 339 339 340 341 340 341 341 341 343 345 347 349 348 348 347 347 347 347 347 348 348 348 347 345 345 344 344 345 347 349 350 348 347 346 346 347 348 348 349 349 349 350 350 349 349 349 347 345 345 346 346 346 346 345 345 344 343 341 342 344 345 348 351 348 344 344 343 344 344 343
354 360 356 343 338 337 337 338 339 341 342 341 340 339 338 338 337 337 337 336 337 337 338 339 341 344 345 346 345 344 343 344 346 347 347 347 347 345 344 343 343 343 345 346 347 347 346 347 347 346 348 348 348 348 347 348 350 350 350 350 350 348 346 346 347 347 347 346 346 346 345 344 340 339 342 342 342 346 349 347 345 344 346 346 344
350 353 346 339 339 338 338 340 340 341 343 343 342 341 338 336 336 335 335 335 335 336 336 336 339 340 338 339 341 341 342 343 344 344 345 345 345 344 343 342 342 342 344 345 345 346 346 347 348 348 350 348 347 348 347 347 349 350 350 350 349 350 349 350 350 349 348 347 347 346 345 343 339 338 340 342 341 343 346 346 343 343 346 345 344
350 349 342 338 340 339 340 341 340 341 343 342 341 338 337 336 335 334 334 332 333 334 334 335 336 336 335 337 339 341 342 343 343 343 343 343 342 343 342 341 341 341 342 343 344 344 345 345 344 344 345 347 347 349 348 348 348 347 347 348 348 349 349 350 350 350 348 348 346 346 346 344 341 339 341 343 343 343 344 344 342 343 344 343 342
351 353 347 340 339 340 341 340 340 342 341 339 337 336 335 335 333 332 330 329 330 331 332 332 334 334 334 337 339 341 342 342 341 341 341 341 340 340 340 340 340 340 340 341 342 343 342 341 340 338 338 341 343 344 345 344 344 344 345 346 346 347 348 348 349 349 348 347 347 346 346 345 343 342 343 343 343 343 343 343 342 342 343 343 342
349 353 352 345 339 338 340 340 340 341 339 336 335 334 334 334 333 330 329 329 330 331 331 332 334 333 334 336 336 338 341 340 341 340 339 340 339 339 339 339 339 340 340 341 341 341 341 339 338 337 337 339 339 339 339 338 338 340 340 342 343 343 345 347 347 347 347 346 346 346 345 344 343 343 343 343 343 343 343 342 341 342 343 342 342
348 350 351 346 339 335 337 340 340 339 337 335 334 335 335 335 333 330 329 331 331 331 331 332 334 333 333 336 335 337 339 340 340 339 338 337 337 337 337 338 339 339 339 340 340 340 340 340 339 338 338 339 339 338 338 337 337 338 339 341 342 343 344 346 345 344 344 342 343 344 344 343 343 343 343 342 342 342 342 343 342 343 342 342 343
347 346 346 341 336 335 336 339 340 337 335 335 336 337 336 334 332 330 330 331 331 331 332 333 333 332 334 337 337 337 338 338 338 338 338 337 336 337 337 338 338 338 338 339 339 340 339 340 340 339 340 339 339 338 337 337 337 337 339 340 342 343 344 345 344 342 341 340 342 343 343 342 342 343 343 342 342 341 341 343 343 344 345 344 345
344 344 346 341 334 335 338 339 338 335 336 338 338 337 335 333 332 331 331 331 331 332 332 332 331 331 334 336 336 336 336 335 335 335 336 336 336 337 337 336 337 337 338 338 339 339 339 339 340 340 340 339 338 338 338 338 339 338 339 339 339 340 343 344 342 341 340 339 341 342 342 342 341 341 342 342 342 341 342 342 343 344 345 346 347
343 345 347 341 334 334 337 339 336 335 337 339 337 336 335 334 333 332 331 330 330 332 332 330 331 332 334 334 333 333 333 333 333 333 333 333 334 335 335 334 335 335 336 337 336 337 336 337 337 338 337 337 336 336 337 339 339 339 339 339 338 338 341 342 341 340 340 339 340 340 340 341 340 341 341 342 342 342 342 343 343 343 344 346 347
343 345 343 336 333 334 336 337 336 336 338 338 337 336 335 334 333 332 332 331 330 332 332 330 331 333 333 333 332 332 332 332 333 332 333 333 333 333 333 333 334 334 335 336 335 335 335 335 336 335 336 336 336 337 337 339 340 340 340 340 339 339 340 340 340 340 339 340 340 340 340 340 340 340 340 341 341 341 342 342 343 344 344 344 346
343 346 345 338 332 333 337 336 337 337 339 339 337 337 336 335 334 333 332 332 331 332 331 329 331 332 332 331 331 331 331 331 332 332 332 332 332 332 332 332 333 333 334 335 335 335 335 335 336 336 336 336 336 337 337 338 338 339 340 340 340 340 341 341 340 340 339 340 341 340 339 339 339 339 339 340 340 341 341 342 343 344 345 345 344
343 344 348 339 330 332 336 335 337 338 338 339 338 337 336 335 334 334 332 332 331 331 330 329 330 331 329 330 330 330 331 331 331 330 329 330 331 331 332 332 333 333 334 335 335 335 334 335 335 335 336 336 336 337 337 337 338 339 339 340 340 340 340 340 340 340 339 339 339 339 338 337 338 338 339 339 340 340 341 341 342 343 344 345 345
341 344 347 337 329 333 337 335 337 339 339 339 338 337 337 336 334 334 332 332 331 331 330 329 329 329 328 329 330 330 330 331 330 329 327 329 331 331 332 333 333 333 334 334 334 333 333 333 333 333 333 333 334 336 337 337 338 338 339 339 340 339 340 339 340 340 339 339 338 338 337 338 338 339 339 339 339 339 340 340 341 342 343 345 345
341 345 344 334 329 333 335 336 338 338 339 339 339 338 337 336 334 333 333 331 331 330 329 329 328 327 328 329 330 330 329 330 330 328 327 329 331 332 332 333 333 333 334 334 332 332 332 332 331 331 331 330 331 333 335 336 337 338 338 339 339 340 340 340 340 341 341 340 340 339 339 340 339 339 339 339 339 338 339 339 339 341 342 343 345
342 343 337 330 330 333 334 336 338 338 339 338 338 338 336 336 335 334 334 332 331 330 328 328 327 326 328 328 329 329 329 329 330 329 329 329 330 330 332 334 334 334 334 333 332 332 331 331 331 331 331 330 331 332 334 335 336 336 337 338 339 339 340 340 341 342 342 342 341 340 340 340 339 339 338 338 338 338 338 338 338 339 340 341 343
343 341 334 329 331 333 334 337 338 337 339 338 338 338 336 336 335 334 334 332 331 330 326 326 326 325 327 328 329 329 329 329 329 328 329 330 330 330 331 333 335 334 334 334 333 334 334 333 333 331 331 330 330 332 334 336 335 335 336 337 338 339 339 340 340 341 341 342 341 341 340 340 339 338 338 338 338 338 337 337 337 337 338 339 341
345 342 339 337 336 335 334 336 337 337 338 337 338 337 336 336 335 334 333 332 330 329 327 326 325 325 327 328 328 329 330 329 328 328 329 329 330 329 329 331 333 333 335 335 335 336 336 335 334 333 331 330 331 332 334 336 335 335 336 336 337 338 339 339 339 339 340 340 340 340 339 339 339 338 338 338 338 338 338 337 337 337 337 338 340
345 346 345 343 340 335 333 335 336 337 337 337 337 337 336 335 334 333 332 331 330 329 327 325 325 325 326 328 328 329 330 330 328 328 329 329 328 329 328 329 329 330 331 332 334 336 335 335 334 333 331 331 332 333 334 336 336 336 335 335 336 337 338 338 338 338 338 338 339 339 338 339 339 338 338 339 339 339 338 337 337 337 337 338 339
344 345 345 346 344 337 334 336 337 336 337 337 337 336 334 332 331 331 331 330 329 328 326 325 325 324 326 328 329 329 331 330 329 329 329 329 329 328 328 328 328 328 328 329 330 333 334 334 333 332 331 331 333 334 334 335 336 335 334 335 336 337 338 338 337 337 337 338 338 338 338 339 339 339 340 340 340 340 339 338 338 337 337 338 338
342 345 346 348 349 341 334 335 337 337 337 338 337 335 332 331 329 328 329 329 327 326 326 325 325 325 326 328 328 328 330 331 330 329 330 330 329 328 328 328 327 328 328 328 329 331 332 332 332 331 331 331 333 334 332 331 332 333 334 334 335 336 336 336 337 336 336 337 337 337 338 338 338 339 339 340 341 340 340 340 339 339 338 338 338
344 346 347 349 350 343 334 334 338 337 337 337 335 333 331 330 327 325 326 327 326 326 326 326 326 326 326 326 326 327 329 330 330 330 331 331 331 329 328 328 328 328 328 328 328 329 330 331 330 330 331 332 332 332 329 328 330 333 333 334 333 333 334 335 336 337 337 337 337 337 337 337 337 338 338 338 339 339 340 340 340 340 339 339 339
347 347 347 347 347 340 331 334 338 337 338 337 333 332 331 328 325 323 324 325 326 326 327 326 327 327 326 325 325 327 328 328 329 329 331 332 332 330 329 328 329 328 329 329 328 328 328 330 330 330 331 332 331 329 328 328 330 331 331 332 332 333 334 334 335 337 337 337 337 337 337 338 337 338 337 337 338 338 339 340 340 340 340 339 339
348 345 345 346 346 337 329 332 337 336 337 335 332 331 330 328 326 324 324 325 326 326 327 327 326 327 327 326 325 327 327 327 327 328 330 332 332 332 330 330 329 327 328 329 329 329 328 329 329 329 331 332 330 328 328 329 330 331 331 332 332 332 334 335 335 336 336 337 337 337 338 338 338 338 338 338 338 338 339 340 340 340 340 340 339
346 342 342 347 350 341 330 331 335 335 335 333 331 331 329 328 328 325 325 326 326 327 327 327 326 326 328 326 325 327 327 326 326 326 328 331 332 333 332 330 329 328 328 329 329 329 328 328 329 330 331 332 330 328 327 327 329 330 330 332 333 333 334 335 336 336 336 337 337 338 339 339 340 340 339 339 339 339 339 340 339 340 339 339 340
343 341 344 346 344 336 331 332 334 334 333 331 331 331 329 329 328 326 326 326 326 327 326 325 325 326 327 326 326 327 326 325 326 326 327 329 331 333 332 329 328 327 327 329 328 328 327 327 329 330 330 331 330 327 326 325 327 329 330 331 334 334 335 335 336 338 337 337 338 338 339 339 341 341 340 340 340 340 340 340 340 340 339 339 340
339 340 343 339 332 329 331 333 333 332 332 331 331 330 329 329 328 327 327 326 326 327 326 325 326 326 327 326 325 326 326 325 327 327 328 329 331 333 331 327 326 326 327 329 328 328 327 327 329 331 330 329 329 327 325 324 325 327 329 331 333 334 335 336 338 339 338 338 337 337 338 340 341 341 340 341 341 340 341 340 339 339 339 340 340
339 341 339 331 328 330 331 332 332 331 332 331 331 330 329 330 329 329 328 327 326 327 327 326 327 327 327 327 325 325 326 326 327 328 329 330 331 331 328 325 325 326 326 328 328 328 328 328 329 331 329 327 328 328 325 324 324 325 328 330 331 333 335 337 338 338 337 337 337 337 339 341 342 342 341 341 341 341 341 340 339 339 339 340 340
339 337 333 328 328 331 331 331 332 331 331 332 331 331 330 330 330 329 329 328 327 327 327 327 327 327 328 326 325 325 324 324 326 328 330 330 329 327 326 324 325 326 327 328 328 328 328 328 328 330 329 325 327 328 325 324 325 325 327 329 329 330 333 334 334 335 336 336 337 337 338 340 341 341 341 341 341 340 340 339 339 338 338 339 340
332 329 329 329 330 332 331 331 331 330 331 332 331 331 331 331 331 330 330 329 328 327 327 327 327 328 328 325 324 324 322 323 326 328 328 329 328 326 325 325 326 326 327 328 329 328 329 329 328 329 329 325 325 327 325 324 324 324 326 328 327 327 329 329 328 330 332 333 334 336 337 338 338 338 339 340 340 338 337 337 337 337 337 338 339
328 327 329 329 330 331 331 330 331 330 331 331 331 331 331 331 331 331 330 329 329 328 328 328 328 328 325 324 323 324 323 324 327 327 327 328 327 326 326 326 327 327 327 327 328 328 328 329 328 329 329 326 325 326 327 326 325 325 326 327 325 324 324 325 325 325 326 327 328 331 334 335 337 337 337 338 339 338 338 337 336 336 337 337 339
329 329 330 330 330 330 330 330 331 330 331 331 331 331 332 331 331 331 331 330 329 329 329 329 329 328 326 325 324 324 323 323 326 327 327 326 326 326 325 326 326 328 327 325 325 325 325 328 329 328 327 327 326 326 328 327 325 325 327 326 323 321 321 321 322 322 321 321 323 324 326 329 333 336 336 337 337 337 336 336 335 335 336 337 337
330 330 330 331 331 330 331 331 331 330 331 331 331 331 331 331 331 331 331 330 330 331 330 329 329 329 328 325 323 323 323 322 324 325 324 324 324 323 323 325 326 327 327 325 323 323 322 323 327 328 327 327 327 327 328 327 325 326 327 326 323 321 320 320 321 321 320 320 320 320 320 322 326 329 331 334 335 335 336 336 336 337 336 336 336
330 330 330 330 330 331 331 331 330 330 330 330 330 330 331 330 331 331 331 331 330 330 329 327 329 330 328 325 323 322 322 322 322 323 322 322 322 321 321 325 326 325 326 325 323 322 321 320 323 326 327 326 327 328 328 326 325 326 328 327 324 322 320 320 321 321 320 319 319 319 319 319 321 323 325 328 329 331 333 333 333 334 335 335 335
329 330 330 330 330 331 331 331 330 329 329 328 328 329 330 331 331 331 329 327 327 328 327 327 327 329 328 326 323 321 321 321 321 322 322 321 320 320 321 322 324 323 325 326 324 322 322 321 321 323 326 326 327 328 327 326 327 328 328 328 326 324 323 322 322 321 321 319 319 319 318 319 319 320 321 323 324 325 326 326 327 328 330 332 333
328 330 330 329 329 330 330 330 329 328 328 328 328 330 331 331 330 328 325 325 327 327 328 328 328 330 329 326 323 321 321 322 321 321 321 320 320 321 321 321 322 322 323 325 325 323 322 322 321 321 323 326 327 328 327 327 329 329 329 329 328 326 325 325 324 323 322 321 320 321 320 319 319 319 319 320 320 321 322 324 325 326 327 328 330
328 329 330 329 328 329 330 328 327 327 327 327 328 330 331 329 328 325 324 327 329 328 329 330 330 330 328 323 321 322 322 321 320 319 320 320 320 322 321 322 322 322 323 324 325 324 323 322 322 320 321 325 328 328 327 328 329 330 329 329 330 329 328 328 326 325 325 323 322 322 323 322 320 319 318 319 319 319 320 321 323 325 326 327 328
328 329 330 329 328 328 327 326 325 326 326 327 329 330 329 327 325 325 327 329 328 327 328 329 330 330 326 322 322 322 321 321 320 320 320 321 322 322 322 322 322 321 321 322 323 323 323 323 322 321 320 323 326 328 328 328 330 331 330 329 330 330 330 330 329 328 327 326 324 324 325 326 326 322 319 318 320 320 319 319 319 320 323 325 326
328 329 329 329 327 326 325 325 325 325 326 327 328 327 326 325 326 326 328 329 327 325 325 327 330 329 324 322 322 321 320 321 320 320 320 321 321 322 321 322 322 321 321 322 322 323 323 323 323 322 321 321 324 327 328 327 327 329 331 331 331 331 330 330 329 329 329 328 327 326 327 328 328 327 323 320 320 321 321 321 320 319 319 320 323
326 327 328 328 326 324 325 325 325 325 325 325 326 325 325 327 328 328 328 328 325 324 325 328 330 328 323 321 321 320 321 322 321 320 321 321 322 322 321 322 322 321 321 321 321 322 323 323 323 323 322 322 322 324 326 325 322 324 326 328 331 332 332 330 328 327 328 328 328 328 328 329 329 328 326 322 321 321 321 322 322 321 320 318 319
325 325 327 327 326 325 325 325 324 325 325 325 326 327 328 329 329 328 327 326 324 325 327 328 328 325 322 321 321 320 321 322 321 320 321 321 322 322 322 322 322 321 321 321 321 322 322 322 323 323 322 322 322 322 323 323 321 321 321 322 324 328 330 331 329 328 327 328 328 328 329 328 329 329 328 326 324 324 324 324 324 324 322 320 319
323 323 325 326 326 325 325 325 326 325 326 327 327 327 328 329 328 327 327 325 324 326 328 328 325 323 322 321 321 321 322 321 321 321 321 321 322 323 322 322 322 321 320 321 320 321 321 322 322 323 322 322 322 321 321 322 322 321 321 320 320 321 323 327 330 330 329 328 328 328 328 328 328 328 328 328 328 328 327 327 327 326 325 322 321
323 324 325 327 326 325 325 326 326 326 327 327 327 326 327 328 328 328 327 324 323 325 326 326 324 322 321 322 322 322 322 321 320 321 321 322 323 323 322 322 321 321 320 320 320 320 321 321 322 322 323 322 322 321 321 321 322 321 320 319 319 319 319 321 324 327 328 328 327 327 327 328 328 328 328 328 328 328 328 329 328 327 327 326 325
326 325 326 327 326 326 326 325 326 327 327 326 326 326 326 327 327 328 326 324 323 324 324 324 323 322 322 322 322 322 321 321 321 322 322 322 323 323 323 322 322 321 320 320 320 320 320 321 321 322 322 322 321 320 320 320 321 321 320 319 318 319 319 319 320 321 323 323 324 324 325 325 325 326 326 326 326 326 327 328 328 328 328 328 327
Wind_Speed
10 16 18 20 19 18 17 15 15 15 14 14 14 16 18 20 21 20 19 19 20 22 23 24 24 22 22 20 19 19 19 20 24 28 32 35 34 32 31 33 35 36 37 37 39 39 38 36 36 35 34 33 33 32 32 30 29 30 31 30 30 29 28 28 27 23 19 18 19 18 19 21 22 24 26 25 25 26 26 26 25 26 27 29 29
8 13 15 18 19 19 18 17 14 13 12 12 12 13 14 14 16 16 14 13 14 15 16 17 17 18 21 23 24 22 15 15 21 25 28 31 30 29 29 30 33 35 36 36 37 39 39 38 37 37 36 35 34 33 32 31 29 30 30 30 29 29 30 29 28 22 16 16 13 6 11 20 21 23 27 28 28 28 28 29 29 27 27 28 29
5 7 11 14 15 15 15 14 12 9 7 7 7 8 9 10 13 15 14 13 12 12 13 14 15 18 20 20 21 23 18 15 18 19 21 25 25 26 28 30 31 34 36 36 37 38 39 39 39 38 37 36 35 33 32 31 30 30 31 32 29 28 28 27 28 26 21 16 8 3 5 9 10 15 23 28 30 30 30 29 30 31 30 28 27
5 5 7 11 12 11 10 8 7 4 2 1 2 3 5 7 9 10 10 10 10 10 11 11 13 15 15 14 13 16 16 16 16 16 17 19 20 22 26 29 29 32 34 35 36 37 39 41 41 40 39 37 36 34 34 33 33 33 33 33 30 26 25 26 27 28 25 17 6 3 3 2 3 8 14 23 28 29 31 31 31 32 33 32 30
6 5 5 9 12 12 10 7 5 4 3 3 4 5 6 8 8 6 5 7 9 10 11 11 13 14 14 14 13 14 15 16 17 18 19 18 17 17 20 24 26 29 31 32 34 34 37 40 38 37 38 38 37 36 35 34 34 34 34 34 33 30 27 24 24 26 28 26 16 7 4 3 3 5 6 11 19 25 29 31 32 33 34 34 34
6 6 6 8 11 12 12 10 7 5 5 5 5 6 7 7 7 7 7 8 10 12 13 13 15 16 17 17 16 16 16 17 19 21 23 22 20 16 15 18 21 24 28 33 34 31 32 33 31 32 34 36 37 36 35 33 33 34 34 34 35 36 31 23 22 24 27 30 29 22 15 9 5 4 4 4 8 17 24 27 31 33 34 36 36
4 5 6 7 9 10 10 10 9 7 5 5 4 5 7 8 9 9 9 9 10 11 12 13 13 15 16 17 18 18 18 21 23 23 24 24 23 20 17 15 16 19 24 31 33 31 29 29 30 33 34 33 33 33 33 33 32 31 32 33 35 35 31 26 24 24 23 26 31 32 29 22 10 4 3 2 3 7 15 20 24 27 31 34 36
5 5 5 6 8 7 7 9 9 8 6 5 4 3 4 6 8 9 10 11 12 13 13 13 14 14 16 17 19 19 20 23 25 25 25 24 24 23 20 17 15 15 19 24 28 30 28 27 28 32 34 33 31 30 31 33 33 31 31 33 34 32 31 31 30 25 23 25 28 30 33 28 18 13 9 4 1 2 6 11 16 19 23 27 32
5 6 6 6 8 7 5 6 7 6 5 4 4 3 2 2 4 6 9 10 12 13 14 14 14 14 15 17 19 20 21 23 24 24 25 24 24 23 20 19 18 16 17 20 23 24 23 23 24 27 31 31 30 29 28 31 32 31 31 32 32 32 33 34 33 29 27 27 25 26 28 24 21 23 19 10 6 6 4 4 9 11 14 21 26
4 5 6 7 8 7 5 5 5 5 5 4 5 5 3 2 2 5 7 9 11 13 14 14 14 14 15 15 17 20 21 22 22 23 24 22 22 22 18 17 17 17 17 19 23 23 20 20 20 22 25 26 26 26 26 28 31 31 30 30 30 31 32 34 34 33 32 31 28 25 23 20 16 16 18 17 13 11 8 6 8 9 9 15 21
4 4 5 8 9 7 6 6 5 5 5 5 5 3 1 1 3 5 8 10 11 13 14 14 14 14 15 16 17 19 20 20 19 21 23 21 20 20 19 16 15 14 16 18 22 22 19 18 17 17 19 21 22 22 23 25 27 28 27 27 27 28 30 32 34 35 34 32 31 29 27 25 21 17 19 21 16 11 9 7 10 14 12 16 20
5 4 5 7 8 8 9 8 6 8 8 6 5 3 1 1 3 6 9 11 12 14 15 15 15 15 16 18 18 18 18 18 18 19 21 21 20 19 17 16 14 12 13 16 19 21 19 19 19 18 16 17 19 20 21 23 25 26 26 26 27 29 30 31 32 34 34 33 32 32 31 31 30 27 25 24 20 18 14 8 11 14 11 16 23
6 5 5 5 7 10 10 10 10 11 9 7 5 3 1 1 2 5 7 9 11 12 12 13 14 15 16 18 19 19 18 18 18 19 19 18 17 16 15 16 15 13 12 13 16 19 20 22 24 22 20 19 21 22 24 26 27 26 27 28 30 31 32 32 32 32 33 34 34 33 33 32 32 32 29 26 24 23 17 11 14 15 10 13 18
6 6 6 5 8 10 10 11 12 11 8 7 5 3 2 2 1 3 6 8 9 10 10 10 11 13 15 16 17 18 19 19 18 19 19 18 16 14 13 13 12 12 12 11 11 13 16 19 21 23 23 23 24 25 25 26 26 27 27 28 29 31 33 33 32 33 35 37 37 34 33 33 32 32 31 30 28 25 20 16 14 13 12 12 13
6 7 6 6 9 9 9 12 12 10 8 7 6 5 4 2 1 3 6 8 8 9 9 9 10 11 13 14 15 15 16 17 17 17 17 17 16 15 13 12 13 14 14 14 13 14 17 18 19 21 23 25 26 26 26 27 28 29 30 29 28 30 32 33 33 34 35 37 37 34 33 33 33 33 32 33 34 31 27 24 18 10 8 9 8
7 6 6 7 9 8 9 13 12 9 8 7 7 6 4 3 1 2 5 6 7 8 8 8 9 11 11 11 12 13 14 15 16 16 15 15 14 14 14 14 14 15 15 16 15 16 17 18 19 21 24 27 29 29 28 29 29 31 32 32 32 31 31 33 33 33 35 36 36 35 34 34 34 36 36 35 35 35 31 29 25 16 9 6 5
7 6 6 7 8 8 11 14 12 9 8 8 8 6 4 3 1 2 3 4 6 6 7 9 11 11 10 10 11 12 13 15 16 16 15 14 14 14 15 14 13 13 13 14 14 15 16 17 19 22 24 26 29 30 30 29 30 31 33 34 34 33 32 34 33 33 35 35 35 36 36 36 35 36 37 37 36 35 34 32 30 26 17 8 5
7 6 6 7 9 10 13 14 12 9 9 9 8 6 5 3 1 2 2 4 6 6 7 10 11 11 10 10 11 11 12 13 14 14 14 14 14 14 15 15 13 13 13 13 14 14 15 16 19 21 23 25 27 30 30 30 30 30 33 34 34 33 33 34 34 33 34 33 34 36 36 36 36 35 36 38 37 35 35 34 33 31 26 18 10
6 6 5 6 9 11 15 15 12 9 9 9 8 7 6 4 2 2 2 4 5 5 7 10 11 11 11 11 12 11 11 12 12 13 13 13 14 14 14 14 14 13 13 13 14 15 15 16 17 19 22 24 26 28 29 30 29 30 32 33 34 34 34 35 35 34 35 34 34 35 35 35 37 36 37 39 38 36 36 35 33 31 30 27 20
6 6 5 6 10 14 17 17 12 10 10 10 9 9 7 5 3 2 2 4 4 5 7 9 10 11 11 12 12 12 11 12 11 12 13 13 13 13 13 14 14 13 13 13 13 14 15 17 17 18 21 23 25 27 28 29 30 30 31 33 33 34 34 35 35 35 34 34 33 34 34 35 36 36 37 39 38 37 37 35 34 32 30 29 26
6 6 5 7 11 15 17 15 11 11 11 10 10 9 7 5 3 3 3 4 5 5 6 8 9 10 11 11 12 12 12 12 11 10 10 11 12 13 14 14 14 13 13 12 13 14 15 17 18 19 22 24 25 26 26 28 30 31 32 33 33 33 34 35 34 34 33 33 33 34 34 35 35 35 37 38 38 37 36 35 33 32 31 28 26
7 6 6 7 11 14 15 13 11 11 11 11 10 9 7 5 4 3 3 4 4 4 5 6 8 9 11 11 11 11 11 12 11 10 9 10 12 14 15 15 15 14 13 12 13 15 16 18 20 22 23 25 26 26 26 26 28 31 32 33 33 32 32 32 32 32 32 32 32 33 34 35 35 36 37 38 38 37 35 34 34 33 32 30 29
7 6 6 8 11 13 13 12 12 12 11 11 10 8 6 5 4 3 3 4 4 4 4 5 8 10 10 10 10 10 11 12 13 11 10 10 12 13 15 16 16 15 14 14 14 16 18 20 22 23 25 26 27 27 27 27 28 30 32 32 32 31 30 30 30 31 31 31 31 33 34 35 35 34 36 37 37 36 35 34 35 34 33 31 30
6 6 6 8 9 10 11 11 12 11 11 10 9 8 6 5 4 3 3 4 4 4 4 6 8 10 10 9 9 10 12 14 14 12 11 11 12 13 14 15 16 16 16 16 17 18 19 21 23 24 26 28 28 28 27 27 27 28 29 30 30 30 30 30 31 32 32 30 31 32 34 36 35 33 35 36 36 35 34 34 35 35 33 31 30
6 6 5 6 7 8 10 11 11 11 11 9 9 7 6 5 4 4 4 4 4 5 6 8 9 10 11 10 9 10 12 14 14 13 12 12 13 13 14 14 15 16 17 18 20 20 21 22 24 25 27 28 28 27 26 27 26 24 25 27 28 29 29 29 30 31 31 31 32 33 34 36 36 34 35 36 36 35 35 34 34 34 33 32 31
7 6 5 6 6 8 10 11 10 11 10 9 8 7 5 5 4 5 5 5 5 5 7 9 10 11 11 11 9 10 12 13 13 13 13 13 14 14 15 16 17 18 19 20 21 21 22 23 24 25 27 28 27 26 24 24 24 23 22 23 25 26 27 28 28 29 30 30 31 33 34 35 36 35 36 37 36 36 35 35 35 34 33 32 30
7 6 5 5 6 7 9 11 11 11 10 9 8 7 6 6 5 5 6 6 5 5 8 10 11 11 12 11 10 10 12 13 13 14 14 15 14 14 15 16 17 18 19 20 22 22 22 23 25 26 27 27 27 25 22 21 22 22 22 22 23 25 26 26 26 27 29 30 31 32 33 35 37 37 37 38 37 35 35 36 37 35 32 30 29
6 6 6 6 6 7 9 12 12 12 11 10 9 8 7 7 6 6 6 6 6 7 9 11 11 12 12 11 11 11 12 13 14 15 16 16 16 15 15 16 17 17 17 19 22 24 24 23 25 26 27 27 25 22 21 21 22 21 19 19 21 22 25 28 28 28 29 31 32 34 35 36 39 40 40 40 39 36 35 35 36 36 33 30 29
7 7 7 8 8 7 9 12 13 13 13 12 10 10 9 8 6 5 5 6 6 8 10 11 12 12 12 11 10 11 12 13 15 16 16 17 16 16 16 17 17 16 16 18 20 23 24 24 25 25 24 25 23 21 22 23 23 22 21 20 20 21 23 27 30 30 30 31 33 35 37 39 41 43 44 45 43 40 37 35 35 35 33 30 29
9 8 8 8 8 8 10 12 13 14 15 14 13 12 11 8 5 4 5 6 7 9 10 11 12 12 12 11 11 11 11 12 14 15 16 17 17 16 15 16 17 16 16 17 19 21 23 23 23 23 22 21 20 22 24 24 23 23 24 23 22 23 23 24 27 30 31 32 34 36 38 40 42 45 47 48 47 45 42 40 37 36 36 33 30
8 8 8 8 7 7 9 11 13 16 17 16 14 12 10 8 6 5 6 7 8 10 10 11 12 12 12 12 11 11 11 12 13 15 16 17 17 17 16 16 16 16 17 19 20 20 21 22 22 22 21 19 19 22 25 26 26 26 26 25 24 24 24 24 25 28 31 33 35 36 37 39 41 45 47 49 49 48 46 44 41 38 38 37 34
8 8 8 8 7 7 9 12 16 19 19 17 13 11 10 9 8 7 7 7 9 10 10 11 11 12 11 11 11 11 12 13 14 16 17 17 17 18 17 17 16 15 17 18 18 18 19 20 20 20 19 18 19 23 25 26 29 30 30 29 28 26 25 24 25 27 30 33 35 36 37 38 40 43 46 46 47 47 47 47 45 41 39 39 39
9 9 9 8 8 9 13 17 19 21 20 16 12 10 10 9 9 9 8 9 9 9 10 11 11 11 11 11 11 12 13 14 16 18 19 18 18 18 17 17 16 16 16 15 14 14 16 18 18 18 16 17 19 22 24 26 29 32 31 29 28 27 24 23 24 26 28 30 32 34 36 37 38 41 42 43 42 43 45 47 46 44 41 40 40
8 9 8 8 10 13 17 20 21 21 18 14 11 10 9 9 10 11 11 11 11 10 10 11 12 12 13 12 12 13 14 16 19 20 19 18 18 17 16 15 16 17 17 15 13 12 13 15 16 15 15 16 19 21 24 26 29 33 32 28 25 24 22 21 22 24 25 28 30 31 33 33 34 36 38 40 40 39 40 43 45 44 42 41 40
8 8 8 9 12 15 18 21 22 20 17 15 13 11 10 10 11 12 13 13 13 12 12 12 13 13 13 13 14 15 16 18 20 19 16 15 16 16 15 14 16 17 18 18 14 11 11 12 13 13 13 15 18 21 24 26 29 33 33 29 26 23 19 18 18 18 21 24 26 27 28 29 30 32 35 38 39 38 38 39 40 41 40 40 40
10 11 11 14 18 20 22 24 23 20 18 17 15 13 13 13 12 13 15 15 15 15 15 14 14 14 14 14 15 17 18 20 19 16 13 13 14 15 14 14 15 17 17 18 14 9 9 10 11 10 12 15 17 20 24 26 28 33 34 31 30 25 17 10 10 12 14 16 18 20 22 26 28 30 32 35 37 36 35 35 36 36 35 35 36
12 14 17 21 24 25 26 25 22 19 19 18 16 14 14 14 14 15 16 16 16 16 16 16 15 14 14 13 14 16 19 20 17 13 12 13 13 15 15 15 16 17 16 15 12 9 8 10 10 10 11 13 16 19 23 25 27 31 33 32 31 29 23 19 17 14 10 8 8 7 10 16 20 23 27 32 33 29 26 27 28 28 29 29 31
12 14 17 21 25 26 26 24 21 19 19 18 16 15 15 15 16 17 17 16 17 16 16 15 14 13 12 12 13 15 18 18 15 12 12 13 14 15 16 16 16 16 14 12 11 9 9 10 10 9 10 12 14 16 20 23 25 29 30 29 29 29 28 25 23 23 25 24 20 14 6 3 11 16 18 21 23 22 21 22 21 21 21 22 25
13 16 19 23 27 27 24 21 20 19 19 18 16 15 15 16 18 18 17 17 17 16 14 14 13 13 13 12 13 14 15 15 13 12 12 14 15 16 17 16 15 13 11 11 11 10 10 11 11 10 9 11 13 14 18 21 22 26 27 27 27 28 30 29 26 26 31 34 33 30 24 15 5 9 13 16 17 18 18 19 18 18 17 19 24
15 19 21 24 25 23 20 20 21 20 18 17 16 15 15 17 18 18 18 19 19 17 14 13 13 14 13 12 12 13 12 12 12 12 12 13 14 14 15 15 12 10 10 10 11 11 12 13 13 11 9 10 12 13 16 18 19 21 24 24 25 25 27 28 27 26 29 33 34 35 33 29 22 14 8 10 13 14 16 16 17 17 17 19 24
19 21 21 20 21 21 22 22 22 20 18 17 16 15 17 18 18 18 19 19 19 17 15 13 13 13 13 12 12 11 10 11 12 12 11 11 11 12 14 13 11 10 11 11 10 10 11 13 14 11 8 8 10 11 13 15 17 18 19 20 22 23 24 26 27 27 28 30 31 32 32 31 29 28 24 20 17 14 13 11 9 10 10 10 13
17 19 19 19 20 20 22 22 21 21 19 17 15 16 17 17 17 18 18 17 16 16 15 14 13 13 13 12 10 9 9 10 12 10 8 8 9 11 13 13 13 13 14 12 10 10 10 13 14 12 8 6 8 10 11 13 16 16 16 16 18 20 22 24 25 26 26 27 27 28 28 27 28 28 27 26 26 24 22 20 17 14 13 13 13
16 18 20 21 21 21 23 23 22 21 20 17 15 16 17 16 17 17 15 14 13 14 14 14 13 14 13 11 9 9 8 8 9 8 6 7 10 12 13 14 14 15 15 13 12 11 12 12 14 14 11 7 7 9 10 11 14 15 15 14 14 16 19 20 21 22 22 23 22 23 23 24 25 25 25 25 25 24 23 22 20 19 17 15 16
18 21 23 23 22 22 23 23 22 21 19 17 17 17 17 16 16 15 13 12 12 12 13 13 13 13 11 9 9 9 7 5 6 6 6 8 10 11 12 13 14 15 15 14 13 13 14 14 13 15 14 10 8 8 9 9 11 13 14 14 12 12 14 17 17 16 16 17 18 18 19 21 22 22 22 22 24 23 22 21 20 19 18 17 17
20 22 23 23 22 21 22 22 20 18 17 17 17 17 17 16 15 14 13 12 12 13 13 12 12 11 8 8 8 7 5 3 5 6 7 9 9 9 10 12 14 16 17 17 16 15 15 15 14 14 15 13 10 9 10 10 11 11 12 13 13 12 12 12 13 12 12 13 13 14 15 18 20 21 21 21 22 22 21 20 18 18 18 19 19
18 20 21 21 20 19 18 17 17 16 16 16 16 17 17 17 15 14 13 12 13 14 13 12 12 10 7 6 6 5 4 4 5 5 6 8 8 7 9 11 13 16 18 18 17 16 16 16 16 15 15 14 12 11 11 12 12 11 10 11 11 11 11 11 12 12 12 11 12 12 14 16 18 20 20 19 19 19 19 19 18 17 16 16 17
19 20 20 19 17 15 15 16 17 18 16 16 17 17 17 17 15 13 12 12 14 14 12 11 12 10 6 5 6 6 5 5 5 5 7 7 7 7 9 11 12 14 16 17 17 17 16 16 16 16 16 15 14 13 12 11 12 13 12 11 10 9 9 10 12 13 13 12 12 13 14 15 16 17 17 16 16 15 16 16 16 15 13 12 13
19 17 16 16 16 16 17 17 19 19 17 15 15 15 14 14 12 10 10 11 13 14 11 11 12 10 7 6 7 7 6 6 5 6 7 7 7 8 10 10 10 12 13 14 15 15 14 14 14 14 15 16 15 15 13 12 12 13 13 13 12 10 9 9 9 10 12 13 13 13 14 14 15 15 14 13 12 12 12 13 13 12 11 9 9
17 15 15 17 18 18 17 18 20 20 17 14 13 12 10 10 10 9 9 11 12 11 9 11 12 11 8 7 8 9 8 8 6 7 8 7 7 9 10 9 9 10 11 13 14 14 14 14 13 11 11 13 15 15 14 12 11 12 13 13 13 12 11 10 9 9 10 11 12 13 13 14 15 15 14 13 12 11 9 9 9 9 8 7 7
12 12 13 14 15 15 15 18 19 18 15 14 13 11 9 9 9 9 9 10 10 9 8 9 12 12 9 8 9 11 11 9 7 8 9 7 6 8 9 9 8 8 10 11 13 14 14 14 14 12 10 10 12 13 12 11 10 10 11 12 12 12 12 11 11 10 11 11 12 13 14 14 14 14 15 14 14 13 11 9 7 6 5 4 4
6 7 7 9 11 12 13 15 17 16 14 14 13 11 10 10 9 9 9 10 11 11 11 11 12 13 11 10 10 12 13 11 8 9 9 7 6 7 8 8 7 7 7 10 12 14 15 15 15 14 12 9 9 9 10 10 11 10 10 11 12 12 12 12 11 11 11 12 12 13 14 15 14 14 14 14 14 13 11 9 7 6 4 3 1
Wind_Direction
114 119 134 152 166 177 187 196 196 198 205 209 217 223 226 230 232 236 241 246 247 247 249 251 252 254 257 259 254 247 246 256 266 267 264 261 260 262 263 263 259 253 254 253 247 243 241 241 241 238 237 238 238 238 237 234 232 233 234 236 238 238 241 244 242 238 236 241 248 256 263 264 259 252 250 246 241 241 243 246 244 241 239 239 240
106 110 124 139 154 168 182 193 195 198 203 210 226 236 237 236 241 251 260 266 266 257 253 255 258 263 266 267 268 267 257 253 268 269 262 259 260 265 267 264 262 259 257 254 249 244 240 237 236 235 235 236 238 238 236 234 233 233 233 233 235 237 240 243 240 231 224 231 236 251 274 272 264 253 250 247 241 239 240 243 245 244 242 241 241
95 97 109 125 144 158 170 182 192 206 215 219 241 261 264 268 274 278 279 285 292 284 277 278 277 276 276 277 276 277 280 282 283 275 262 257 258 265 268 265 264 262 257 251 246 243 240 237 234 233 234 234 235 234 231 231 233 235 233 232 233 235 238 240 238 232 224 222 215 189 248 265 264 247 243 243 239 237 238 239 242 242 241 242 241
109 99 101 113 129 145 160 171 180 196 213 262 325 337 333 333 321 303 294 303 315 310 303 299 288 282 285 288 283 284 297 307 305 293 282 274 267 267 268 266 262 259 254 246 242 242 242 239 235 233 233 233 233 230 229 231 233 233 232 231 230 230 234 236 236 233 224 212 187 169 198 199 250 236 232 238 237 236 238 238 239 240 241 243 242
130 125 120 117 124 133 141 145 140 131 96 54 38 27 15 13 8 347 318 315 320 313 303 296 289 287 290 292 290 291 300 308 308 307 307 302 288 275 270 268 262 259 258 251 245 244 242 240 236 233 233 232 231 229 231 234 234 233 232 230 228 228 231 233 234 232 226 219 209 195 175 177 234 224 222 241 236 232 236 238 238 239 240 242 242
141 142 147 139 134 132 136 141 134 116 85 60 47 31 20 16 10 356 334 320 317 315 311 303 297 295 296 299 302 303 302 303 307 311 314 313 305 289 276 275 274 270 264 253 247 243 239 239 237 235 235 232 230 230 232 234 234 233 232 230 229 230 230 230 230 230 228 226 222 221 226 229 221 193 198 250 244 235 236 237 238 238 239 240 242
148 151 155 152 146 137 135 141 138 130 108 76 51 31 21 12 5 359 351 346 343 343 342 334 324 316 312 310 309 308 306 307 309 309 310 311 307 300 293 287 286 281 266 255 250 247 244 245 242 239 237 235 231 229 231 235 234 233 234 233 231 230 227 225 229 228 223 226 228 228 233 236 231 191 188 233 261 247 239 238 240 240 239 240 240
159 160 169 165 157 148 140 145 148 148 143 119 87 51 22 6 4 4 2 3 1 358 356 354 348 339 329 322 318 317 314 312 311 305 301 302 300 302 302 295 288 276 262 258 255 251 250 253 250 242 236 234 232 231 236 241 239 236 238 237 234 233 229 227 230 227 218 224 228 228 232 235 231 228 233 233 219 270 254 245 246 246 244 244 242
172 166 179 177 169 169 161 159 162 159 163 154 130 122 96 27 357 350 349 347 346 344 344 346 347 344 338 330 324 323 320 316 312 304 301 301 296 296 298 296 296 286 268 260 254 250 248 250 249 241 235 234 234 239 245 247 245 242 239 238 237 238 234 230 231 229 224 226 226 225 229 231 232 237 242 245 238 246 262 252 247 248 250 250 248
187 177 181 184 184 186 179 174 182 187 194 174 143 137 129 100 6 357 357 350 344 343 344 346 348 348 347 340 328 324 323 319 313 307 304 304 299 295 292 289 295 292 280 265 250 246 246 245 245 244 241 240 241 246 248 247 248 247 245 244 242 240 236 232 233 232 230 230 228 224 221 216 220 235 241 238 233 236 246 252 245 238 242 254 254
191 189 190 200 203 200 196 199 206 199 188 162 148 153 140 337 337 359 3 355 349 346 347 350 354 355 351 345 334 327 325 320 312 306 304 303 300 297 292 286 290 288 279 267 251 247 251 248 248 252 250 246 249 252 251 250 252 253 254 254 250 246 243 240 238 237 235 232 229 226 222 216 214 219 225 224 221 226 238 251 249 240 241 254 259
182 185 195 207 210 208 207 205 191 174 168 158 156 167 174 307 321 346 352 349 345 341 342 349 356 357 353 347 340 334 329 323 315 309 308 308 304 300 295 293 297 294 282 272 259 253 257 261 262 265 258 249 250 255 259 262 263 263 264 263 260 257 252 246 242 239 236 232 228 226 227 225 221 220 222 220 217 223 230 243 250 242 241 251 256
177 184 195 199 198 202 200 189 176 168 165 162 159 161 146 35 351 356 356 349 345 343 344 349 354 354 352 347 343 341 337 330 324 318 318 319 314 303 295 293 299 301 292 281 270 262 266 271 272 268 261 257 259 262 266 266 267 269 269 268 266 262 257 250 243 239 238 235 232 229 229 229 226 226 227 224 223 225 226 238 250 245 239 251 257
179 187 194 192 193 196 190 178 175 169 163 165 163 158 153 126 37 3 358 350 348 349 345 345 348 348 347 345 343 343 342 338 332 326 323 323 323 315 303 295 298 305 301 295 292 285 281 278 273 269 268 271 272 272 272 270 270 272 271 268 264 261 258 253 246 243 243 241 238 234 231 231 231 230 228 228 229 229 226 228 240 244 241 248 256
186 192 194 195 196 194 183 176 173 167 165 169 165 159 159 148 77 359 351 346 346 348 344 344 345 340 341 340 339 339 340 339 335 333 328 323 322 322 317 308 303 304 304 303 299 293 292 288 279 274 275 277 278 278 276 274 273 271 269 265 260 257 255 251 249 246 242 239 239 239 236 232 231 232 230 230 231 231 229 227 228 231 241 245 249
188 192 196 202 201 190 178 177 174 171 172 172 169 167 171 169 130 357 348 344 343 347 353 356 345 336 336 335 333 332 331 330 329 329 330 326 324 323 321 317 310 306 304 301 297 291 291 290 282 276 276 278 279 279 277 274 271 268 265 263 260 257 251 248 249 245 238 239 242 241 238 235 232 232 232 231 230 230 228 228 227 222 225 239 241
189 193 196 201 202 191 182 182 181 179 179 175 172 174 184 188 191 351 349 340 334 339 352 354 344 336 334 330 328 327 324 322 321 320 319 319 319 319 318 317 313 310 304 299 297 294 291 289 285 282 281 281 280 279 277 274 271 267 263 260 259 257 250 246 248 247 244 245 245 241 237 235 234 231 231 231 230 230 229 229 230 226 221 220 235
191 198 201 208 207 197 190 189 188 184 181 177 176 184 196 203 262 330 341 332 327 329 341 346 344 339 335 332 330 328 326 325 324 320 317 314 313 313 313 312 312 311 310 307 305 302 299 295 292 291 288 286 283 280 278 274 268 265 263 258 257 255 248 245 247 247 246 244 242 240 237 236 236 233 232 233 231 231 231 230 231 229 225 220 218
195 201 208 217 213 203 194 191 188 182 178 179 184 195 202 210 257 300 315 329 326 319 331 342 344 339 335 334 334 333 335 338 336 330 324 320 318 316 313 312 313 315 314 315 315 314 314 311 306 302 299 294 291 287 284 278 269 262 258 256 253 250 244 243 243 244 244 241 237 238 237 236 237 236 234 235 232 231 232 231 230 229 226 224 219
195 198 205 217 218 209 196 188 186 182 181 185 193 201 205 217 253 270 297 326 320 306 325 339 339 336 334 335 337 336 336 339 341 338 333 332 332 327 321 315 313 315 318 320 323 323 323 321 318 314 308 303 299 293 288 283 274 264 257 253 252 248 242 241 242 241 241 238 235 236 237 238 239 236 234 234 233 232 232 232 231 229 227 225 221
192 196 206 216 217 208 193 185 182 181 187 194 200 207 211 224 249 262 291 318 311 304 318 330 332 333 332 334 337 335 332 331 332 334 333 338 342 338 332 323 315 317 322 323 325 326 325 323 321 317 313 308 302 295 289 283 276 268 261 255 253 249 243 241 240 239 239 237 236 237 239 242 241 236 234 234 232 232 231 231 231 229 227 225 219
193 200 204 208 207 198 186 181 180 183 193 202 206 211 219 232 245 255 288 306 300 300 311 320 329 332 329 331 337 338 336 329 325 323 324 333 343 343 338 329 321 320 321 320 321 324 325 325 321 317 314 309 303 297 292 286 277 269 262 257 254 250 245 242 239 237 237 235 235 235 236 238 238 235 235 234 233 231 228 229 229 228 227 224 218
196 198 199 203 199 188 179 180 185 191 202 210 212 216 224 237 240 244 283 299 289 285 299 315 326 332 330 327 330 340 342 334 327 319 314 321 331 337 338 332 323 318 316 314 314 318 323 324 321 318 315 310 305 299 294 290 281 271 261 256 254 250 247 242 238 237 237 234 231 231 232 234 234 233 234 234 234 232 228 226 227 227 227 225 220
205 205 199 200 193 180 179 187 190 197 209 215 216 220 228 238 246 262 295 302 280 272 295 316 323 330 333 327 326 336 340 337 332 322 314 317 322 330 336 332 324 316 313 311 310 312 316 319 319 318 317 313 308 304 300 295 287 276 264 257 255 254 250 245 240 238 238 235 231 230 231 233 234 232 232 233 232 231 228 226 225 225 227 227 223
208 207 192 187 181 177 186 192 194 201 211 215 215 220 232 248 268 286 301 303 278 266 293 315 320 325 330 330 328 334 338 339 337 332 325 320 320 325 331 333 330 324 318 316 314 313 313 316 317 317 317 316 312 309 306 302 296 284 270 264 261 258 254 248 242 240 239 237 235 232 231 233 233 231 230 230 230 228 227 225 224 224 225 226 225
204 199 187 179 177 185 193 192 195 202 207 209 211 217 236 258 275 282 289 297 288 275 294 313 318 321 327 330 330 330 335 338 339 340 338 331 325 324 327 332 335 331 328 325 323 319 315 314 316 318 320 319 317 316 312 309 304 292 276 269 265 260 256 252 249 246 244 241 239 236 234 233 232 230 229 229 228 226 225 223 224 225 224 222 221
203 192 178 168 172 193 194 187 190 197 201 206 209 217 238 255 268 275 279 289 295 289 300 312 315 318 324 328 330 329 328 330 333 337 340 339 335 331 333 337 335 333 335 333 328 323 319 317 318 320 323 322 319 318 319 320 318 307 289 275 268 262 257 253 251 249 247 244 242 240 238 235 234 232 231 231 230 226 224 223 223 224 223 219 216
203 188 176 169 178 194 188 182 186 193 199 204 209 220 235 247 264 277 276 281 288 293 304 311 312 317 324 326 329 330 326 325 327 330 335 340 341 340 344 347 341 336 335 331 327 325 322 321 323 323 326 329 325 323 331 337 335 328 311 292 280 271 263 259 257 253 249 247 246 243 240 238 238 237 235 234 233 228 224 223 222 223 222 217 213
202 195 185 177 181 189 183 183 187 192 198 203 208 220 229 238 260 280 275 268 272 282 298 306 307 314 319 320 326 329 327 325 324 324 329 334 337 340 345 349 345 337 331 326 323 324 323 324 325 324 330 339 338 335 341 343 339 335 327 312 297 286 275 266 260 256 253 250 250 249 245 241 240 240 239 238 237 233 228 224 221 219 218 215 212
199 194 189 185 187 185 182 185 190 194 200 204 209 217 224 232 249 268 264 260 267 278 290 298 304 311 313 312 318 324 327 327 325 325 326 328 331 336 341 346 346 340 335 329 323 321 323 324 325 325 330 341 343 340 342 343 340 333 326 316 302 289 282 272 260 256 255 254 254 253 250 246 244 242 241 240 240 237 232 229 225 219 216 212 207
196 189 188 190 188 181 182 190 196 201 205 206 210 218 223 231 248 256 259 261 267 278 286 292 299 305 304 304 310 316 322 327 328 329 328 326 328 331 333 337 339 337 332 326 321 319 321 323 324 325 329 335 339 341 343 343 340 335 327 318 306 290 281 275 263 256 255 256 257 255 253 250 246 242 240 240 240 238 235 232 229 224 221 215 208
190 189 189 189 185 183 191 199 203 206 207 208 211 218 224 236 249 252 257 260 263 274 282 287 297 301 299 301 305 308 316 324 330 333 332 329 329 331 333 332 331 328 322 319 319 319 319 322 323 324 328 335 339 342 343 342 341 340 333 322 311 296 281 271 265 260 257 257 256 256 257 254 245 239 236 235 237 238 236 233 230 227 225 222 216
188 191 190 187 191 195 200 204 207 208 207 208 212 217 228 242 248 248 255 258 261 271 278 285 297 301 299 302 306 309 316 323 329 331 330 330 330 332 334 332 329 328 322 319 318 316 317 322 322 323 330 337 339 340 341 342 345 346 340 328 315 302 285 270 266 264 260 258 257 259 262 256 242 234 231 230 232 234 234 232 230 227 225 224 222
193 195 191 189 196 202 206 209 211 210 208 208 213 219 232 245 247 248 254 257 261 269 276 285 297 301 301 305 310 316 321 326 329 330 330 331 332 332 334 333 334 335 332 328 320 310 316 324 323 323 329 335 338 341 342 345 349 351 348 340 328 312 291 275 270 267 264 263 262 263 263 252 235 226 226 226 226 228 227 225 225 224 222 222 221
198 198 195 195 197 201 209 214 215 213 208 208 213 220 231 241 246 252 256 257 261 267 273 283 295 302 305 309 316 322 327 330 331 331 333 335 334 333 334 335 339 341 339 337 328 309 311 324 327 325 328 334 338 342 345 347 351 356 356 352 345 332 304 280 275 275 274 274 272 269 260 243 227 222 223 223 222 221 219 216 216 217 218 218 218
199 194 193 197 199 202 208 213 215 212 209 211 216 220 227 238 247 255 258 260 262 266 271 280 291 302 308 313 321 327 331 334 334 331 333 336 334 334 336 338 342 345 345 344 336 313 302 316 328 329 329 335 340 345 348 349 355 1 3 1 0 356 347 334 321 307 292 286 284 274 251 230 221 222 222 221 219 215 209 205 207 210 212 214 217
201 198 199 201 203 206 210 213 214 212 212 216 220 222 227 238 248 254 259 263 264 265 270 277 287 301 310 315 320 325 329 332 332 330 332 332 330 333 337 339 341 345 351 351 343 322 297 302 319 329 329 334 342 348 349 351 359 6 7 9 10 9 13 24 24 15 9 359 340 301 240 218 213 213 213 211 208 200 192 190 195 199 202 206 213
194 197 204 205 206 210 213 215 214 216 218 221 225 228 231 238 247 253 258 263 265 267 272 277 285 296 306 310 315 321 325 328 329 330 333 331 328 331 337 338 340 346 353 355 350 337 311 297 307 322 327 330 338 346 347 350 1 9 11 16 20 19 19 24 30 40 46 45 42 41 47 179 198 199 200 199 194 186 181 183 186 189 192 199 208
197 200 204 205 207 211 215 216 217 221 224 225 228 231 233 240 250 255 257 262 266 270 274 278 284 292 297 303 312 319 323 328 331 331 332 333 333 336 340 342 345 350 353 354 355 348 331 312 305 311 325 330 330 337 345 349 360 10 15 21 28 31 29 26 26 37 45 47 47 46 45 50 96 186 199 200 199 196 193 195 197 196 198 207 214
202 205 206 206 207 210 211 212 217 223 227 226 228 230 233 242 251 255 257 262 267 270 273 277 285 291 294 301 313 318 322 333 339 335 334 338 340 345 348 347 349 352 351 351 355 352 344 334 318 306 318 334 331 334 343 350 360 10 16 22 31 39 41 36 31 34 41 44 46 45 44 47 57 74 118 163 185 196 199 203 206 204 205 216 220
202 204 205 207 208 210 210 212 218 225 229 227 225 228 235 242 249 253 257 265 271 272 273 279 287 290 291 299 309 312 318 333 338 333 333 341 347 352 354 352 349 346 344 345 349 349 348 347 337 317 309 334 345 345 348 353 2 11 15 20 30 41 47 44 39 37 39 42 44 43 41 43 51 59 67 79 93 107 121 128 140 158 170 182 195
206 206 207 207 208 210 212 216 224 229 230 227 225 229 236 241 245 251 261 273 280 277 274 277 282 283 285 295 305 306 312 324 328 329 333 344 351 353 355 355 350 343 339 335 336 340 342 346 347 337 316 322 346 355 356 357 3 11 14 16 26 35 41 45 44 42 42 43 45 46 43 41 45 52 58 63 69 75 81 82 84 91 103 112 118
203 205 208 207 207 208 211 218 227 231 230 227 226 230 234 239 246 257 269 279 284 284 280 276 275 278 283 293 300 301 305 316 325 331 336 343 347 350 355 358 356 352 345 335 329 332 334 336 342 345 339 326 331 346 355 360 4 9 12 13 20 26 31 38 43 44 45 45 44 47 49 46 45 48 52 55 59 64 69 72 73 74 78 85 92
203 205 208 207 206 207 211 220 229 231 228 229 229 230 233 241 254 266 275 280 289 294 287 277 273 274 278 291 298 294 292 307 328 334 334 337 341 347 355 1 2 3 360 351 341 333 330 329 333 341 346 341 328 333 345 353 359 7 13 14 17 21 25 30 35 40 43 43 39 37 41 47 49 49 49 51 53 54 57 62 68 71 70 71 75
207 207 207 206 205 207 213 223 229 228 228 230 230 230 235 246 261 273 276 282 297 299 285 272 264 258 264 288 294 279 263 292 328 332 333 339 343 350 359 1 3 6 5 2 357 347 338 333 328 331 342 345 337 334 342 347 348 353 5 13 16 19 23 26 29 31 32 35 33 26 26 35 43 46 47 49 51 51 51 53 59 66 71 70 69
208 207 206 205 206 210 217 226 230 228 228 231 232 235 243 252 265 277 281 284 294 295 283 265 248 239 252 282 277 251 243 284 318 322 332 346 351 355 360 360 3 8 6 4 3 359 352 345 336 330 336 341 340 341 345 351 351 347 350 358 4 13 21 22 25 26 23 20 20 16 15 22 31 37 39 42 46 51 52 51 53 59 68 70 66
209 208 204 201 203 211 219 228 231 228 226 229 235 243 251 258 269 281 284 284 290 291 279 252 228 222 238 257 246 238 250 275 299 313 329 346 352 351 355 359 4 9 8 5 5 3 357 349 341 336 335 335 338 343 348 354 358 357 356 356 356 3 12 17 22 26 24 20 14 10 12 18 26 32 36 39 43 48 50 50 51 54 60 67 67
215 211 204 200 205 213 220 226 229 227 224 230 242 252 257 261 268 276 275 281 293 289 264 229 212 214 229 238 234 240 254 265 283 309 323 337 350 355 357 1 9 13 12 8 6 3 358 348 339 337 337 334 335 342 347 350 353 354 357 360 2 3 3 5 13 17 19 19 16 12 16 21 24 27 31 33 37 41 44 46 50 54 58 67 76
216 212 208 207 212 218 222 226 230 228 229 244 261 265 261 263 266 264 264 279 292 282 246 216 209 217 230 235 236 243 250 254 272 308 319 325 347 3 4 7 18 25 22 15 9 7 4 356 349 346 339 329 329 337 343 344 345 348 352 355 360 5 4 360 359 358 358 4 7 6 8 13 14 15 14 13 13 15 20 31 43 55 63 70 79
223 222 221 221 226 230 231 232 234 235 242 260 269 263 260 270 268 254 255 274 284 277 257 234 224 227 238 244 243 246 249 250 268 303 315 320 343 4 12 21 28 29 26 20 16 15 13 7 4 4 354 330 324 331 336 338 339 344 350 351 353 359 1 0 358 352 348 352 357 357 357 359 359 358 357 356 354 352 352 2 16 36 57 72 83
248 243 240 242 244 243 241 241 243 247 256 268 272 267 267 274 270 256 258 271 274 270 266 253 239 239 249 254 252 251 251 252 269 297 308 319 341 357 14 33 42 37 31 29 29 31 31 26 19 17 13 360 339 329 331 336 338 342 350 353 352 352 354 357 358 356 352 353 354 353 354 355 353 348 345 344 344 343 344 345 346 355 10 25 59